GEFSMW_500_meanwind_186.txt.gz
Wind_Speed
6 6 6 6 6 6 7 6 5 4 3 4 4 4 5 6 6 7 8 7 8 8 8 8 8 8 7 7 6 7 7 6 6 6 6 6 6 6 6 6 6 5 5
6 7 7 8 7 8 8 8 6 4 4 4 4 4 4 5 6 7 8 9 8 8 8 8 9 9 8 8 9 8 8 8 8 8 7 8 8 8 8 8 8 8 8
8 8 8 8 9 9 10 9 8 7 6 6 7 7 6 6 7 7 8 9 9 10 9 9 9 10 10 10 10 10 10 10 10 9 10 10 10 10 11 11 10 10 10
10 10 10 10 10 11 11 11 10 8 8 8 9 9 8 7 7 7 8 8 9 9 9 8 9 10 10 10 10 11 11 12 12 12 12 12 12 13 13 13 13 13 12
12 12 12 12 12 13 12 12 11 10 10 10 9 9 9 9 8 8 9 10 9 9 9 9 9 9 10 11 11 11 11 12 13 13 14 14 14 14 15 15 15 15 15
14 14 14 14 14 14 13 13 12 12 11 11 10 10 10 11 10 9 10 11 11 10 10 10 10 10 11 12 12 12 13 13 14 14 15 15 16 16 16 16 16 17 17
15 15 14 14 14 14 14 13 12 12 11 12 12 12 11 11 11 11 11 12 12 12 11 11 11 11 12 12 13 14 14 15 15 16 16 16 17 17 17 18 18 19 19
15 15 15 14 14 14 13 12 12 13 12 13 13 13 13 12 12 13 12 12 13 13 13 13 13 13 13 13 14 15 15 15 16 17 17 17 18 18 18 19 19 20 20
16 16 16 14 14 14 13 13 14 14 13 13 13 13 13 12 12 12 12 12 12 13 13 14 14 14 15 15 15 15 16 17 17 18 18 19 19 19 19 20 20 21 21
16 16 16 15 15 14 14 15 16 15 15 14 14 13 14 14 13 13 13 13 14 14 13 13 14 14 15 16 16 16 16 17 18 18 19 20 20 20 21 21 21 22 22
17 17 17 16 16 16 15 16 16 14 15 15 15 14 14 14 14 14 14 14 15 14 14 14 14 15 16 16 16 17 18 18 19 20 20 21 22 22 23 23 23 23 23
17 17 17 17 17 17 16 16 16 15 15 15 15 15 15 15 14 14 14 14 15 16 15 15 16 16 16 16 17 18 19 19 20 20 21 22 22 22 23 23 23 23 24
17 17 17 17 17 16 16 16 16 16 15 15 15 15 15 15 14 14 14 14 15 15 16 16 17 17 17 18 18 19 20 19 19 20 20 21 22 22 22 22 23 23 24
17 17 16 16 16 16 16 16 16 15 15 14 14 14 15 14 13 13 14 14 14 14 16 16 16 17 18 19 19 20 20 20 20 20 21 21 22 22 22 22 23 23 24
17 16 15 14 15 15 15 15 15 14 14 13 14 14 13 14 14 14 14 14 14 15 16 16 17 18 18 19 19 20 20 20 20 20 21 21 21 21 21 22 23 24 25
16 15 15 15 14 14 13 13 13 13 13 14 13 13 14 14 14 14 14 14 15 16 16 17 17 18 18 19 19 20 21 21 21 22 22 22 22 22 22 24 24 26 26
16 16 16 15 14 13 13 12 13 14 14 14 15 15 15 15 15 14 14 14 15 16 17 18 19 19 19 19 20 21 21 22 23 23 23 23 24 24 24 25 25 25 26
17 17 15 15 14 14 13 13 13 14 15 15 15 16 16 16 16 16 15 15 16 17 18 18 19 20 20 21 22 22 23 23 23 23 23 23 24 25 25 25 24 25 26
18 17 16 16 15 15 14 13 13 14 15 15 16 16 17 16 16 16 16 16 16 16 17 18 19 19 19 21 22 23 23 23 22 23 23 23 24 25 25 25 26 26 27
19 18 17 17 16 16 16 15 15 14 15 16 16 16 16 16 16 16 17 17 17 17 17 18 19 20 21 21 22 22 22 22 22 23 23 24 25 25 25 26 27 27 28
19 18 17 16 16 16 15 16 16 16 16 16 16 17 17 17 16 17 17 17 17 18 17 18 19 20 22 22 22 23 23 23 23 23 24 25 25 25 26 27 28 29 29
19 19 18 18 18 17 17 17 17 16 17 16 16 17 17 17 17 18 18 18 18 18 19 19 20 20 21 21 22 23 23 24 24 24 24 26 27 27 27 28 28 29 30
21 21 20 19 19 19 18 18 18 17 17 18 18 19 19 18 18 19 18 18 18 19 20 20 21 21 22 22 22 23 24 24 25 25 26 27 27 27 28 28 29 30 31
22 22 21 20 20 19 19 19 18 18 19 20 20 20 20 19 19 19 19 19 20 20 21 21 22 22 22 23 23 24 24 25 25 25 25 26 27 28 28 29 30 30 31
23 22 21 20 20 20 20 19 19 19 20 20 21 20 20 21 20 20 20 20 21 22 22 22 22 22 23 23 23 24 25 25 25 25 26 27 27 28 29 30 30 31 32
23 23 23 22 21 21 20 19 19 19 20 20 20 20 20 21 21 21 21 22 22 22 22 22 23 23 23 23 24 24 24 24 25 26 27 27 28 28 29 30 31 31 32

GEFSMW_500_meanwind_192.txt.gz
Wind_Speed
9 10 11 10 10 11 11 11 10 10 9 9 8 7 7 6 5 5 6 5 5 5 6 6 7 6 6 6 5 5 5 5 6 6 6 6 6 6 6 7 6 7 6
10 10 11 11 11 11 12 12 11 11 10 10 10 8 7 7 6 6 7 7 7 7 7 7 7 7 8 7 7 7 7 7 7 8 8 8 8 8 8 8 8 8 9
11 10 11 11 11 12 13 13 12 11 11 10 10 10 9 8 7 7 8 8 8 8 8 8 8 8 8 8 8 8 8 8 9 9 9 9 10 10 10 11 11 11 11
12 11 11 11 12 13 14 14 13 13 12 12 11 11 10 9 9 7 7 8 8 9 9 9 8 8 9 9 9 10 10 10 10 10 11 11 11 11 11 12 12 13 13
13 12 11 12 13 14 14 14 14 13 13 12 12 11 11 11 10 9 9 9 9 9 9 9 9 9 9 9 10 10 11 11 11 11 12 12 12 13 13 13 14 14 14
15 14 12 13 14 14 14 13 14 13 13 12 12 12 13 13 12 10 10 10 9 9 9 8 9 9 9 9 10 11 11 12 13 13 13 13 14 15 15 15 15 16 16
16 15 14 13 14 14 14 13 13 12 12 12 12 13 14 13 12 11 10 10 10 9 9 10 10 10 10 11 11 11 12 14 14 14 15 16 16 16 17 17 17 17 18
17 16 15 14 14 14 14 13 13 12 12 12 13 13 13 13 12 11 11 10 10 10 10 10 10 10 10 11 12 13 14 14 15 16 17 17 17 18 18 19 19 18 19
17 17 16 16 15 15 13 13 13 12 13 13 13 13 13 12 12 13 12 12 12 12 11 11 11 11 11 12 12 13 14 14 15 16 17 18 18 19 20 20 20 20 21
18 18 17 16 16 15 15 14 13 13 13 13 14 14 14 14 14 14 14 14 13 12 12 12 12 12 12 12 13 13 14 15 16 17 17 18 19 19 20 21 21 21 21
18 19 18 17 16 15 15 15 15 15 14 14 15 16 16 16 16 15 14 14 13 13 13 13 13 13 13 13 14 14 15 16 17 18 18 19 20 20 21 21 21 22 22
19 19 18 16 16 16 16 16 16 16 15 16 17 18 17 17 16 15 14 14 14 13 13 13 14 14 14 15 15 15 16 17 17 18 19 20 20 21 21 22 22 23 23
19 18 18 17 17 17 17 17 17 17 17 17 17 17 17 16 15 15 15 15 14 14 14 14 15 15 16 16 16 16 16 17 17 18 19 19 20 21 22 22 22 23 23
19 19 19 18 18 18 18 18 18 18 17 17 17 17 17 16 16 16 16 15 15 15 14 14 15 15 15 16 17 17 17 17 18 19 20 21 21 21 22 22 22 23 23
19 20 20 19 19 19 18 19 19 18 18 18 17 17 17 16 16 16 15 15 15 15 16 16 16 16 16 16 17 17 18 18 19 20 20 21 21 22 23 22 23 23 23
20 19 20 19 18 18 18 19 19 19 18 18 18 17 17 16 16 16 16 16 16 16 16 17 17 17 17 18 18 18 19 20 21 21 22 22 23 23 23 23 24 24 24
20 19 19 18 18 18 18 18 18 19 18 18 18 17 17 17 16 16 16 16 16 16 17 17 17 17 18 19 19 20 20 21 21 22 22 23 23 24 25 25 25 25 25
20 20 19 18 18 18 17 18 17 16 17 17 17 17 17 16 16 16 16 16 17 17 17 17 18 18 18 19 19 20 21 22 22 23 23 24 25 25 25 25 26 26 26
20 20 20 19 18 17 17 18 17 16 16 16 17 17 16 15 15 16 16 17 17 18 18 18 18 19 19 19 20 21 22 22 23 24 24 25 26 26 26 26 26 27 27
20 20 19 19 19 18 18 18 18 17 17 16 17 16 16 16 16 17 17 18 18 19 18 19 19 19 20 20 21 22 23 23 23 24 25 25 26 26 25 26 27 27 28
19 19 19 19 19 18 18 18 18 17 17 17 17 17 17 17 17 17 18 18 18 19 19 19 20 20 21 22 22 23 23 24 24 25 25 26 26 26 26 27 28 29 29
20 19 19 19 19 19 19 19 19 19 18 18 18 17 17 18 18 18 19 19 19 19 19 19 21 22 23 23 23 24 24 25 25 26 26 26 26 27 28 29 29 30 30
21 20 20 20 20 20 20 20 20 20 19 19 18 18 18 19 19 19 19 19 19 19 20 21 22 22 23 24 24 24 25 25 26 26 26 27 28 29 29 29 29 30 30
22 22 21 21 20 21 21 21 21 20 20 20 20 19 19 19 19 19 19 20 20 20 21 22 22 23 24 25 25 25 26 26 26 26 27 28 28 29 29 30 30 30 30
23 23 23 22 21 22 22 22 22 22 21 21 21 21 20 20 20 20 20 21 21 21 22 23 23 24 25 26 25 25 26 26 26 27 27 28 28 29 29 30 30 30 31
24 23 23 22 22 22 22 23 23 22 22 21 21 20 20 20 20 20 21 21 22 22 23 24 25 25 26 26 26 26 26 26 27 27 28 28 29 29 30 30 30 31 31

GEFSMW_500_meanwind_198.txt.gz
Wind_Speed
9 9 9 10 10 11 11 12 12 11 10 9 9 7 6 4 3 3 3 1 1 1 2 2 2 3 3 3 4 4 4 4 4 4 5 5 5 6 6 6 7 7 8
8 9 10 8 9 10 11 11 11 10 9 9 8 7 5 4 4 4 3 2 2 2 3 4 3 4 5 5 5 5 5 6 5 6 6 7 7 7 7 8 8 9 10
9 10 10 10 9 9 10 10 10 10 9 8 8 7 6 5 5 5 5 4 4 4 4 5 5 5 6 6 7 7 7 7 7 7 7 8 9 9 9 10 10 11 11
10 10 10 10 10 9 10 10 10 10 9 8 7 6 6 5 6 6 5 5 5 6 6 6 6 6 7 7 7 7 8 9 9 9 9 9 10 10 11 11 12 13 13
10 11 10 10 10 10 10 10 10 10 9 8 7 6 6 6 6 6 5 6 6 6 7 7 7 7 7 8 8 9 9 10 10 11 11 11 11 11 12 13 13 14 15
11 11 10 10 10 10 10 10 10 9 8 8 7 7 6 6 7 6 6 6 6 6 7 7 7 7 8 9 9 10 11 11 11 12 12 13 13 13 14 14 15 15 16
11 11 11 10 10 10 10 10 9 9 9 8 7 7 8 8 8 8 8 7 6 6 7 6 6 7 8 9 9 10 11 12 12 13 13 14 15 15 15 16 16 17 18
12 12 12 11 10 11 11 10 9 8 9 9 8 8 9 9 9 9 8 8 8 8 8 8 8 8 9 10 10 10 11 12 12 13 14 15 15 16 16 16 17 18 18
12 13 13 11 11 12 12 9 9 8 9 9 9 9 9 9 9 9 9 9 9 10 10 10 9 10 10 10 11 11 11 12 12 13 14 16 16 16 16 17 17 17 18
13 13 13 12 12 13 12 10 9 9 9 9 10 10 9 10 11 10 10 10 11 11 11 10 10 10 10 10 11 11 11 11 12 13 14 14 14 15 17 17 17 17 17
14 14 13 13 13 14 12 11 11 10 10 10 10 10 10 11 11 11 11 12 12 11 11 10 9 9 9 10 11 12 13 13 13 14 14 13 14 15 16 17 18 18 18
14 14 14 14 15 14 13 12 12 12 11 11 11 11 11 11 12 13 13 13 12 11 11 10 10 10 10 12 12 13 14 14 14 14 14 15 15 16 16 16 17 18 18
16 16 15 14 14 15 15 14 14 13 13 12 12 12 12 12 12 13 14 13 13 11 11 10 11 11 12 12 12 12 13 14 14 15 15 16 17 17 17 18 18 19 20
17 17 15 15 15 15 15 15 15 15 14 14 14 14 13 13 14 14 14 14 12 11 11 11 11 12 12 12 12 12 13 14 15 15 16 17 18 19 19 20 20 20 20
17 16 15 16 15 15 15 15 16 15 15 15 15 16 15 15 15 15 15 14 13 12 12 11 11 12 13 12 13 14 15 15 16 16 17 18 19 19 20 20 21 22 22
17 16 16 16 16 16 16 16 16 16 16 16 16 16 16 16 16 15 14 14 13 13 13 13 13 14 13 13 14 15 15 15 16 17 18 19 19 20 20 21 21 22 22
18 18 17 17 17 16 16 16 16 15 16 16 15 16 16 16 16 14 13 13 13 13 14 14 15 15 15 15 15 15 15 16 16 17 18 20 20 21 21 21 22 23 23
20 19 18 17 16 16 16 15 15 15 15 14 14 15 16 16 15 14 13 14 14 14 15 14 15 15 15 15 15 16 16 17 18 19 19 20 21 22 22 23 23 24 25
19 18 18 16 16 15 15 15 14 14 14 14 13 13 14 15 15 14 14 14 14 14 14 14 15 15 15 15 16 17 18 19 19 19 20 21 22 22 23 24 24 25 26
17 17 16 16 15 15 14 14 14 13 13 13 13 13 13 13 13 13 13 13 13 13 14 14 14 14 15 16 17 17 18 19 19 20 21 21 22 23 24 25 25 26 26
17 17 16 16 16 15 15 15 14 14 13 13 13 13 12 12 12 11 12 12 13 14 14 14 15 15 16 17 17 18 18 19 20 21 22 23 23 24 25 25 25 25 26
19 18 17 16 16 15 15 15 15 15 14 14 14 14 13 13 12 12 12 12 13 14 14 15 15 15 15 16 17 18 19 20 21 22 22 23 23 24 25 25 25 26 26
20 18 17 17 17 17 16 16 16 16 16 15 15 15 14 13 13 12 13 13 14 15 15 15 16 16 16 17 18 19 20 20 21 22 22 23 23 24 25 26 26 27 28
20 19 18 18 18 18 17 17 17 16 15 15 16 15 15 14 14 14 15 15 16 15 15 16 16 17 18 18 19 20 20 21 22 23 23 24 25 25 25 26 27 28 29
21 19 19 18 18 18 17 16 16 16 16 16 16 16 15 15 16 16 16 16 15 16 16 17 17 18 19 20 20 21 21 22 22 24 24 25 26 26 26 27 28 29 29
21 21 20 19 18 18 17 17 17 16 16 17 17 16 16 16 16 16 15 15 15 16 17 18 18 19 20 21 21 22 23 23 24 25 26 26 26 27 28 28 29 29 29

GEFSMW_500_meanwind_204.txt.gz
Wind_Speed
11 12 13 13 12 12 11 10 10 10 9 8 6 5 3 3 1 1 1 1 2 2 3 3 2 2 2 3 4 4 5 5 5 6 6 7 7 7 8 8 8 8 9
10 11 12 12 11 11 11 10 10 10 10 8 7 5 3 3 2 1 2 2 2 3 4 4 4 4 4 4 5 6 6 7 6 7 8 8 9 9 9 10 10 11 11
7 9 10 11 12 11 10 10 9 9 9 8 7 5 4 3 3 2 3 4 3 3 5 5 6 5 6 6 7 8 8 8 8 9 9 10 11 11 12 12 12 12 13
6 7 8 10 11 11 11 10 9 9 8 8 8 7 6 5 4 4 4 5 4 4 5 6 7 7 7 8 9 9 9 10 10 10 11 12 12 13 13 14 14 14 14
7 8 8 10 10 11 10 10 10 10 8 8 8 8 7 6 6 6 7 6 5 5 5 6 7 9 9 10 10 11 11 11 12 12 13 13 14 14 15 15 16 16 16
8 9 10 10 10 10 10 10 9 9 9 8 8 8 8 7 7 8 7 7 6 6 6 7 7 9 10 11 11 12 12 13 13 13 14 14 15 15 16 16 17 18 18
9 9 10 10 10 11 10 10 9 9 9 9 8 8 8 8 9 8 8 7 7 7 8 8 8 10 11 11 11 12 13 13 13 14 15 15 15 16 16 17 18 18 19
10 10 10 11 11 12 11 10 10 9 9 9 9 9 9 9 9 8 8 7 8 8 8 8 9 10 11 11 12 12 12 13 14 14 15 16 16 16 17 17 17 18 19
10 10 11 11 12 12 12 11 10 10 9 9 9 9 9 9 9 9 9 9 10 10 10 9 9 10 11 12 12 13 13 13 13 14 15 15 15 15 16 16 16 17 18
11 12 12 12 13 12 12 12 10 10 10 10 10 10 10 10 10 10 10 10 11 11 11 11 11 11 11 11 12 13 13 13 13 14 14 14 14 15 15 15 15 16 17
12 12 12 13 13 13 14 13 12 11 11 11 11 12 12 11 11 11 12 12 12 11 11 11 11 12 12 13 13 13 14 14 14 14 14 14 15 15 16 16 16 17 18
13 13 13 13 13 14 14 14 14 13 12 12 12 13 13 13 13 14 14 14 13 12 12 12 13 13 13 13 13 13 13 14 14 14 14 15 16 16 17 17 18 19 19
14 14 14 14 14 14 14 15 15 13 12 13 13 14 14 15 15 16 15 15 15 14 14 14 14 14 14 14 13 14 15 14 14 15 15 16 17 18 19 19 20 21 21
15 15 15 15 15 14 15 15 14 13 13 14 14 15 15 16 17 17 16 16 16 16 16 16 15 15 15 15 14 15 15 15 15 16 17 17 18 19 20 21 22 23 23
16 16 15 15 15 15 15 15 14 14 14 14 15 16 17 17 17 17 17 18 18 18 17 17 17 16 16 16 16 16 16 16 17 18 18 19 19 20 21 23 24 25 25
17 16 15 15 16 16 15 15 15 15 15 15 16 17 17 17 17 17 17 18 18 18 18 18 17 16 16 16 16 16 17 17 18 19 19 20 20 21 22 23 24 25 25
17 15 16 17 17 16 16 15 15 15 16 15 16 16 16 16 16 16 16 17 17 16 16 17 17 16 16 16 16 17 17 18 19 20 21 21 21 22 23 23 24 25 25
17 17 17 18 18 16 15 15 15 15 15 15 16 16 16 16 16 16 16 16 17 16 16 16 16 16 16 16 16 17 18 19 20 21 21 22 23 24 24 25 25 26 26
18 17 17 17 16 15 15 15 16 16 15 15 16 16 17 16 16 16 15 15 15 15 15 15 15 16 16 16 16 17 18 19 20 20 21 22 23 24 24 25 26 27 27
18 18 17 15 15 15 15 15 15 15 16 17 17 17 16 16 16 15 14 14 15 15 14 15 15 15 15 15 16 17 18 18 19 20 21 22 23 24 24 25 26 27 27
19 18 17 16 16 16 16 16 16 16 16 17 17 17 16 16 15 14 13 14 14 14 14 13 13 14 15 16 16 17 18 19 20 21 21 22 23 24 25 26 26 27 27
19 18 18 18 18 17 17 16 16 17 17 17 17 17 16 15 14 13 14 14 14 14 14 14 14 15 16 16 17 18 19 19 20 21 23 24 24 25 26 26 26 26 27
21 20 19 18 18 18 17 17 17 17 17 17 17 17 15 14 14 14 14 15 15 15 15 15 15 16 17 17 17 18 18 18 20 22 23 24 25 26 26 26 27 27 28
21 20 20 19 19 19 18 18 18 17 17 16 16 16 15 15 14 14 15 15 15 15 15 15 16 16 17 17 18 18 19 20 21 23 24 25 25 26 26 27 28 28 28
20 20 20 21 20 20 19 18 18 17 17 16 16 16 16 16 16 16 16 16 16 16 16 16 17 17 18 18 19 20 20 21 23 24 25 25 26 27 28 28 28 29 30
21 21 20 21 21 20 19 18 18 17 17 17 16 16 16 16 16 16 16 16 16 17 17 17 18 18 19 19 20 21 22 23 24 25 25 26 27 27 28 29 29 30 30

GEFSMW_500_meanwind_210.txt.gz
Wind_Speed
9 9 10 10 11 11 11 10 11 11 10 9 8 7 6 4 3 2 2 0 1 1 2 3 3 3 3 3 3 4 4 4 4 5 5 5 6 6 6 7 7 8 9
9 9 9 9 10 10 10 10 10 10 10 10 9 7 6 5 3 3 2 2 1 2 3 4 4 4 5 5 5 5 5 5 5 6 7 7 8 8 8 8 9 10 10
8 9 10 10 10 11 10 10 9 10 10 10 9 8 7 5 4 3 3 3 4 5 5 5 5 6 6 7 7 6 6 7 7 8 9 9 10 11 11 11 11 11 11
8 9 9 10 11 11 11 10 10 10 10 10 9 9 8 6 5 4 4 5 5 5 6 6 7 8 8 8 9 8 9 9 10 10 11 11 12 13 13 13 13 13 14
8 8 9 10 10 10 11 10 10 10 10 10 9 9 8 6 5 5 6 6 7 6 7 7 8 9 9 9 10 10 11 11 12 12 13 13 13 14 14 15 16 16 16
8 8 9 10 11 11 11 10 10 10 10 10 10 9 9 8 7 7 7 7 7 7 7 8 8 9 9 10 11 11 12 12 12 13 13 13 13 14 14 15 16 17 17
8 9 10 12 12 12 12 11 10 10 10 10 10 9 9 9 9 8 8 8 8 8 8 9 9 9 9 10 10 11 11 12 13 13 13 13 13 13 14 15 15 16 17
9 10 11 12 13 13 12 11 11 11 11 10 10 10 10 10 10 9 9 9 9 8 9 9 8 8 9 9 10 10 11 12 13 13 13 13 13 14 14 15 16 16 17
10 10 11 12 13 13 12 12 12 12 12 11 11 11 10 10 10 10 10 10 10 10 10 10 9 9 9 10 10 10 11 12 12 13 14 14 14 14 15 15 16 16 17
12 12 12 13 13 13 13 13 13 13 13 12 12 12 12 12 12 12 12 12 12 11 12 12 11 11 11 11 11 12 12 12 13 13 13 13 14 14 14 14 15 16 17
13 13 13 13 13 13 12 12 13 13 13 14 14 13 13 13 13 13 13 13 13 12 13 13 12 12 12 12 12 12 13 13 13 13 13 14 15 15 15 15 16 17 18
13 13 13 13 13 13 13 13 14 14 14 14 14 14 14 14 14 14 14 14 14 14 14 14 14 13 14 14 14 14 14 14 14 15 15 15 16 17 18 17 17 19 20
14 14 13 14 13 13 13 14 14 14 15 15 15 15 15 15 15 15 15 16 16 16 16 16 15 15 15 15 15 15 15 16 16 17 17 18 19 19 19 19 19 21 22
16 15 14 14 13 14 14 14 14 14 15 15 15 15 15 15 16 16 16 17 17 17 17 17 17 17 17 17 17 17 17 18 18 19 19 19 19 19 20 20 21 22 22
17 16 15 15 14 15 15 15 15 15 15 15 15 16 15 16 17 17 17 16 17 17 17 17 17 17 17 17 18 18 18 18 18 19 19 19 20 20 21 21 21 22 23
18 16 16 16 16 16 15 16 16 16 16 16 15 16 16 16 16 16 16 16 17 17 17 18 18 18 18 18 18 18 17 17 18 19 20 20 21 21 21 22 22 23 24
19 18 17 17 16 16 16 16 16 16 16 16 16 16 17 17 16 16 17 18 18 18 18 18 18 18 18 18 18 18 17 18 19 20 22 22 22 23 23 23 23 24 24
20 20 19 17 17 16 16 17 16 16 16 16 16 16 17 17 17 17 18 18 17 18 17 17 17 17 17 17 17 17 18 18 19 20 21 22 22 22 23 24 24 24 24
21 20 19 18 18 18 17 16 16 16 16 16 16 16 17 17 17 17 18 17 16 16 17 16 16 17 17 16 17 17 18 19 19 20 21 21 21 21 22 23 23 23 24
21 20 19 19 18 17 17 17 16 16 16 16 16 16 17 17 17 17 17 16 16 16 16 16 17 17 17 16 17 18 18 19 19 20 20 20 20 21 22 22 23 24 25
21 20 20 19 18 18 17 17 17 16 16 16 17 17 17 17 17 17 17 17 16 15 16 16 16 17 17 17 17 18 18 19 19 20 19 19 21 22 22 23 24 25 26
22 21 20 19 18 18 18 17 17 17 17 17 17 17 17 17 18 18 17 17 16 16 16 17 17 17 17 17 18 18 19 19 20 20 20 20 21 22 23 23 25 25 25
22 21 21 20 19 19 19 18 18 17 18 18 17 17 17 18 18 18 17 16 16 16 16 17 17 17 18 18 18 19 19 19 20 21 21 22 22 23 24 24 25 25 26
23 22 22 21 21 20 20 20 19 18 18 17 17 17 18 18 17 17 16 16 16 17 17 17 18 18 19 19 19 20 21 20 21 21 22 23 24 24 24 25 25 26 27
24 23 22 22 22 21 21 20 20 19 19 18 18 19 19 18 17 17 17 17 17 18 18 18 19 19 19 20 21 21 21 21 22 23 23 23 23 24 25 26 26 27 27
24 24 23 23 22 22 21 21 21 20 19 19 19 19 19 19 18 17 18 18 18 18 19 19 20 20 21 21 21 22 22 23 23 24 24 24 25 25 26 26 27 28 28

GEFSMW_500_meanwind_216.txt.gz
Wind_Speed
14 15 15 15 16 16 15 14 14 14 14 13 11 10 9 8 7 6 4 4 4 4 5 4 4 3 3 3 3 3 4 4 4 5 5 6 6 7 7 8 8 9 9
13 14 14 14 15 15 15 14 13 13 13 13 12 10 9 8 7 6 5 4 5 5 6 5 5 4 5 5 5 5 6 6 6 6 7 7 8 8 8 9 10 10 11
12 13 13 14 14 14 15 14 14 13 13 12 12 11 9 9 8 6 6 5 5 6 7 7 6 6 6 6 6 6 7 8 8 8 8 9 10 10 10 10 11 12 13
12 12 13 13 14 14 14 14 15 14 13 12 12 11 10 10 9 8 6 6 6 6 7 7 7 7 6 6 7 8 8 9 9 10 10 10 10 10 11 11 11 12 13
11 12 12 13 13 13 14 14 14 14 14 13 13 12 11 10 10 9 7 7 6 7 7 7 8 7 7 7 8 9 9 10 11 11 11 11 11 11 11 11 13 13 13
11 12 12 13 13 13 13 14 14 14 14 13 13 13 12 11 10 9 9 8 8 8 8 8 8 8 8 8 8 9 10 10 10 10 10 10 11 11 12 12 13 14 14
11 11 12 12 13 13 13 13 14 14 14 14 13 13 13 12 12 11 10 10 10 9 8 8 8 8 9 9 10 10 10 10 9 9 10 11 11 12 13 13 13 14 14
12 12 13 13 13 13 13 13 14 14 14 14 14 13 13 13 13 13 12 12 11 10 10 10 10 10 10 10 11 11 10 10 10 10 11 11 12 13 13 14 14 15 15
13 13 13 13 12 13 13 14 13 14 14 14 14 14 13 13 13 13 13 13 12 11 11 11 11 11 11 12 11 11 11 11 11 11 11 12 13 13 14 15 15 16 16
13 14 14 14 14 13 13 14 14 13 14 14 14 14 14 14 13 13 14 14 12 12 12 12 12 12 12 13 13 13 13 12 12 12 13 13 13 14 14 16 16 17 17
14 14 15 15 14 14 14 14 14 14 14 14 15 15 15 15 14 15 15 14 14 12 12 13 13 12 13 13 13 14 13 13 13 13 14 14 15 15 16 17 17 18 18
16 15 16 15 15 15 14 14 14 15 15 15 15 15 15 16 16 16 16 15 15 14 13 13 13 13 13 13 13 13 13 14 14 15 15 16 16 17 17 17 18 19 19
18 17 16 14 14 15 15 15 15 15 16 16 16 16 16 17 17 17 16 16 15 15 14 14 14 14 14 14 14 14 14 15 15 16 16 17 17 18 18 19 19 20 20
17 18 18 17 16 15 15 16 16 16 17 17 16 16 17 17 17 17 16 16 15 15 15 15 15 15 15 15 16 15 15 15 16 17 17 18 18 19 20 20 21 21 22
19 18 18 18 17 16 16 17 17 17 17 18 18 17 17 17 17 18 16 15 15 15 16 16 16 17 17 16 16 16 16 16 17 18 19 19 20 20 21 21 22 22 23
19 18 18 18 17 17 17 17 18 18 19 19 19 18 18 18 18 18 17 17 17 17 17 17 17 17 16 16 17 17 17 18 19 19 20 20 21 21 21 22 23 24 24
21 20 19 18 18 18 18 18 18 18 19 19 19 18 18 17 18 18 18 18 18 18 17 17 17 16 16 16 16 17 17 18 19 19 19 20 20 21 22 22 23 23 24
21 21 20 19 19 19 18 18 19 19 19 19 18 17 17 18 18 19 19 19 18 18 18 18 17 17 17 16 16 17 18 18 18 17 18 19 20 21 22 22 23 24 24
22 22 21 21 20 20 20 19 20 20 19 19 18 18 18 18 19 19 20 19 19 19 18 18 18 18 18 17 17 18 18 18 17 18 18 19 20 21 22 23 24 24 25
22 22 22 22 21 21 21 20 20 20 20 20 19 19 19 19 20 20 20 20 20 19 19 18 17 18 18 17 17 18 18 18 18 18 19 19 20 21 22 23 23 23 24
23 23 23 22 22 22 21 21 21 20 20 20 20 20 20 20 20 20 20 21 20 20 19 18 17 18 18 18 18 18 19 19 19 19 20 20 20 21 22 23 23 23 24
24 24 24 24 23 22 22 21 21 20 21 21 20 20 20 20 20 20 20 21 20 19 18 18 18 18 18 19 19 19 19 19 20 20 21 22 22 22 23 23 24 24 24
25 25 24 24 24 23 22 22 21 21 21 21 21 21 21 20 20 20 20 20 19 18 18 18 19 19 19 19 19 19 20 20 21 21 22 22 23 23 23 24 24 25 26
26 25 24 24 23 23 22 22 22 22 23 22 22 21 21 21 20 21 21 20 19 19 19 19 19 19 20 20 20 20 21 21 21 22 23 23 23 24 24 25 26 27 27
26 25 24 23 23 23 23 23 23 23 23 23 22 22 22 22 22 22 21 21 20 20 19 20 20 20 20 20 21 21 22 23 23 23 24 24 24 24 25 26 27 29 29
25 25 24 23 23 23 24 24 23 23 23 23 23 22 22 22 23 23 23 22 21 21 20 21 21 21 21 21 22 22 23 24 25 25 25 25 25 25 26 27 28 29 30